Location: North Fort Myers
(26.6673°N, 81.8801°W)
Time: 13:51:10
(UTC+00:00)

Envisat - Pass Details

Date: 18 August 2022
Orbit: 764 x 765 km, 98.2° (Epoch: 26 September)

Event Time Altitude Azimuth Distance (km) Brightness Sun altitude
Rises 09:20:21 0° 20° (NNE) 3,229 7.0 -21.7°
Reaches altitude 10° 09:22:44 10° 26° (NNE) 2,300 6.2 -21.2°
Maximum altitude 09:27:37 48° 100° (E) 989 3.9 -20.3°
Drops below altitude 10° 09:32:29 10° 174° (S) 2,289 5.3 -19.3°
Enters shadow 09:33:46 - 178° (S) 2,785 5.7 -19.0°
